sat.trackr.live / text

‹ back to catalog

ONEWEB-0572

NORAD 55151 · 2023-004M

PAYLOAD ACTIVE UNKNOWN

§ Identity

Operator
Country
UK
Launch date
2023-01-10
Launch site
AFETR
Launch vehicle
Mass (kg)
RCS (m²)

Purposes: comms

External: N2YO · Heavens-Above · Gunter

§ Orbital elements

Epoch: 2026-05-25T03:08:37.421088Z

Period
109.29 min
Inclination
87.9151°
Eccentricity
0.0001660
Mean motion
13.17650689 rev/d
Perigee alt
1,192.4 km
Apogee alt
1,195.0 km
Semi-major
7,571.8 km
B*
1.4372e-4
RAAN
10.4510°
Arg perigee
89.4972°
Mean anomaly
270.6349°
Rev number
16,444

§ Raw data

ONEWEB-05721 55151U 23004M   26145.13098867  .00000069  00000+0  14372-3 0  99902 55151  87.9151  10.4510 0001660  89.4972 270.6349 13.17650689164449

JSON: /api/v1/satellites/55151 · /tle

For live sub-satellite position, see the globe view (requires WebGL).

§ Visibility from observer

Set your observer location to see the next 7 days of passes ≥ 10°. The values pass through the URL so the page stays shareable.

No JS? Fill the form by hand. The geolocation button needs JavaScript.